QPF
0.00 0.00 0.00 0.00 0.00 0.00 0.00 0.00 0.00 0.00 0.00 0.00 0.01 0.00 0.00 0.00 0.00 0.00 0.00 0.01 0.00 0.00 0.01 0.00 0.00 0.00 0.00 0.00 0.00 0.00 0.00 0.00 0.00 0.00 0.00 0.00 0.00 0.00 0.00 0.00 0.00 0.00 0.00 0.00
0.00 0.00 0.00 0.00 0.00 0.00 0.00 0.00 0.00 0.00 0.00 0.00 0.00 0.00 0.00 0.00 0.00 0.00 0.00 0.00 0.02 0.00 0.01 0.00 0.00 0.00 0.00 0.00 0.00 0.00 0.00 0.00 0.00 0.00 0.00 0.00 0.00 0.00 0.00 0.00 0.00 0.00 0.00 0.00
0.00 0.00 0.00 0.00 0.00 0.00 0.00 0.00 0.00 0.01 0.00 0.00 0.00 0.02 0.00 0.00 0.00 0.00 0.00 0.00 0.00 0.01 0.01 0.00 0.00 0.00 0.00 0.00 0.00 0.00 0.00 0.00 0.00 0.00 0.00 0.00 0.02 0.03 0.01 0.00 0.00 0.00 0.00 0.00
0.00 0.00 0.00 0.00 0.00 0.00 0.00 0.00 0.00 0.00 0.02 0.04 0.00 0.01 0.00 0.00 0.00 0.00 0.00 0.00 0.00 0.00 0.01 0.03 0.00 0.00 0.00 0.00 0.00 0.00 0.00 0.00 0.00 0.00 0.03 0.03 0.00 0.01 0.00 0.00 0.00 0.00 0.00 0.00
0.00 0.00 0.00 0.00 0.00 0.00 0.00 0.00 0.00 0.00 0.00 0.00 0.00 0.00 0.00 0.00 0.00 0.00 0.00 0.00 0.00 0.00 0.00 0.01 0.01 0.00 0.00 0.00 0.00 0.00 0.00 0.00 0.00 0.03 0.17 0.04 0.00 0.01 0.00 0.00 0.00 0.00 0.00 0.00
0.00 0.00 0.00 0.00 0.00 0.00 0.00 0.00 0.00 0.00 0.00 0.00 0.00 0.00 0.00 0.00 0.00 0.00 0.00 0.00 0.00 0.00 0.00 0.00 0.00 0.00 0.00 0.00 0.00 0.00 0.00 0.00 0.00 0.01 0.03 0.00 0.00 0.01 0.02 0.00 0.00 0.00 0.00 0.00
0.00 0.00 0.00 0.00 0.00 0.00 0.00 0.00 0.00 0.00 0.00 0.00 0.00 0.00 0.00 0.00 0.00 0.00 0.00 0.00 0.00 0.00 0.00 0.00 0.00 0.00 0.00 0.00 0.00 0.00 0.00 0.00 0.00 0.01 0.01 0.00 0.02 0.00 0.00 0.00 0.00 0.00 0.00 0.00
0.00 0.00 0.00 0.00 0.00 0.00 0.00 0.00 0.00 0.00 0.00 0.00 0.00 0.00 0.00 0.00 0.00 0.00 0.00 0.00 0.00 0.00 0.00 0.00 0.00 0.00 0.00 0.00 0.00 0.00 0.00 0.00 0.00 0.00 0.00 0.00 0.04 0.02 0.00 0.00 0.00 0.00 0.00 0.00
0.00 0.00 0.00 0.00 0.00 0.00 0.00 0.00 0.00 0.00 0.00 0.00 0.00 0.00 0.00 0.00 0.00 0.00 0.00 0.00 0.00 0.00 0.00 0.00 0.00 0.00 0.00 0.00 0.00 0.00 0.00 0.00 0.00 0.00 0.01 0.00 0.03 0.01 0.00 0.00 0.00 0.00 0.00 0.00
0.00 0.00 0.00 0.00 0.00 0.00 0.00 0.00 0.00 0.00 0.00 0.00 0.00 0.00 0.00 0.00 0.00 0.00 0.00 0.00 0.00 0.00 0.00 0.00 0.00 0.00 0.00 0.00 0.00 0.00 0.00 0.00 0.00 0.00 0.00 0.00 0.00 0.00 0.00 0.00 0.01 0.00 0.01 0.00
0.00 0.00 0.00 0.00 0.00 0.00 0.00 0.00 0.00 0.00 0.00 0.00 0.00 0.00 0.00 0.00 0.00 0.00 0.00 0.00 0.00 0.00 0.00 0.00 0.00 0.00 0.00 0.00 0.00 0.00 0.00 0.00 0.00 0.00 0.00 0.00 0.00 0.00 0.00 0.00 0.00 0.00 0.00 0.00
0.00 0.00 0.00 0.00 0.00 0.00 0.00 0.00 0.00 0.00 0.00 0.00 0.00 0.00 0.00 0.00 0.00 0.00 0.00 0.00 0.00 0.00 0.00 0.00 0.00 0.00 0.00 0.00 0.00 0.00 0.00 0.00 0.00 0.00 0.00 0.00 0.00 0.00 0.00 0.00 0.00 0.00 0.00 0.00
0.00 0.00 0.00 0.00 0.00 0.00 0.00 0.00 0.00 0.00 0.00 0.00 0.00 0.00 0.00 0.00 0.00 0.00 0.00 0.00 0.00 0.00 0.00 0.00 0.00 0.00 0.00 0.00 0.00 0.00 0.00 0.00 0.00 0.00 0.00 0.00 0.00 0.00 0.00 0.00 0.00 0.00 0.00 0.00
0.00 0.00 0.00 0.00 0.00 0.00 0.00 0.00 0.00 0.00 0.00 0.00 0.00 0.00 0.00 0.00 0.00 0.00 0.00 0.00 0.00 0.00 0.00 0.00 0.00 0.00 0.00 0.00 0.00 0.00 0.00 0.00 0.00 0.00 0.00 0.00 0.00 0.00 0.00 0.00 0.00 0.00 0.00 0.00
0.00 0.00 0.00 0.00 0.00 0.00 0.00 0.00 0.00 0.00 0.00 0.00 0.00 0.00 0.00 0.00 0.00 0.00 0.00 0.00 0.00 0.00 0.00 0.00 0.00 0.00 0.00 0.00 0.00 0.03 0.00 0.00 0.00 0.00 0.00 0.00 0.00 0.00 0.00 0.02 0.03 0.03 0.03 0.02
0.00 0.00 0.00 0.00 0.00 0.00 0.00 0.00 0.00 0.00 0.00 0.00 0.00 0.00 0.00 0.00 0.00 0.00 0.00 0.00 0.00 0.00 0.00 0.00 0.00 0.00 0.00 0.00 0.00 0.00 0.00 0.00 0.00 0.00 0.00 0.01 0.06 0.02 0.00 0.02 0.02 0.07 0.05 0.05
0.00 0.00 0.00 0.00 0.00 0.00 0.00 0.00 0.00 0.00 0.00 0.00 0.00 0.00 0.00 0.00 0.00 0.00 0.00 0.00 0.00 0.00 0.00 0.00 0.00 0.00 0.00 0.00 0.00 0.00 0.00 0.00 0.00 0.00 0.00 0.00 0.02 0.02 0.00 0.00 0.00 0.02 0.03 0.06
0.00 0.00 0.00 0.00 0.00 0.00 0.00 0.00 0.00 0.00 0.00 0.00 0.00 0.00 0.00 0.00 0.00 0.00 0.00 0.00 0.00 0.00 0.00 0.00 0.00 0.00 0.00 0.00 0.00 0.00 0.00 0.00 0.00 0.00 0.00 0.00 0.00 0.00 0.00 0.01 0.00 0.00 0.01 0.06
0.00 0.00 0.00 0.00 0.00 0.00 0.00 0.00 0.00 0.00 0.00 0.00 0.00 0.00 0.00 0.00 0.00 0.00 0.00 0.00 0.00 0.00 0.00 0.00 0.00 0.00 0.00 0.00 0.00 0.00 0.00 0.00 0.00 0.00 0.00 0.00 0.00 0.00 0.00 0.01 0.00 0.01 0.02 0.04
0.00 0.00 0.00 0.00 0.00 0.00 0.00 0.00 0.00 0.00 0.00 0.00 0.00 0.00 0.00 0.00 0.00 0.00 0.00 0.00 0.00 0.00 0.00 0.00 0.00 0.00 0.00 0.00 0.00 0.00 0.00 0.00 0.00 0.00 0.00 0.00 0.00 0.00 0.01 0.02 0.08 0.11 0.11 0.09
0.00 0.00 0.00 0.00 0.00 0.00 0.00 0.00 0.00 0.00 0.00 0.00 0.00 0.00 0.00 0.00 0.00 0.00 0.00 0.00 0.00 0.00 0.00 0.00 0.00 0.00 0.00 0.00 0.00 0.00 0.00 0.00 0.00 0.00 0.00 0.00 0.00 0.01 0.02 0.07 0.12 0.12 0.13 0.13
0.00 0.00 0.00 0.00 0.00 0.00 0.00 0.00 0.00 0.00 0.00 0.00 0.00 0.00 0.00 0.00 0.00 0.00 0.00 0.00 0.00 0.00 0.00 0.00 0.00 0.00 0.00 0.00 0.00 0.00 0.00 0.00 0.01 0.01 0.01 0.01 0.01 0.01 0.02 0.07 0.12 0.14 0.17 0.18
0.00 0.00 0.00 0.00 0.00 0.00 0.00 0.00 0.00 0.00 0.00 0.00 0.00 0.00 0.00 0.00 0.00 0.00 0.00 0.00 0.00 0.00 0.00 0.00 0.00 0.00 0.00 0.00 0.00 0.00 0.00 0.01 0.02 0.02 0.03 0.03 0.00 0.00 0.00 0.01 0.05 0.04 0.08 0.15
0.00 0.00 0.00 0.00 0.00 0.00 0.00 0.00 0.00 0.00 0.00 0.00 0.00 0.00 0.00 0.00 0.00 0.00 0.00 0.00 0.00 0.00 0.00 0.00 0.00 0.00 0.00 0.00 0.00 0.00 0.00 0.01 0.04 0.07 0.04 0.01 0.00 0.00 0.00 0.00 0.00 0.01 0.02 0.04
0.00 0.00 0.00 0.00 0.00 0.00 0.00 0.00 0.00 0.00 0.00 0.00 0.00 0.00 0.00 0.00 0.00 0.00 0.00 0.00 0.00 0.00 0.00 0.00 0.00 0.00 0.00 0.00 0.00 0.00 0.01 0.02 0.06 0.05 0.02 0.01 0.00 0.00 0.00 0.00 0.00 0.00 0.00 0.01
0.00 0.00 0.00 0.00 0.00 0.00 0.00 0.00 0.00 0.00 0.00 0.00 0.00 0.00 0.00 0.00 0.00 0.00 0.00 0.00 0.00 0.00 0.00 0.00 0.00 0.00 0.00 0.00 0.00 0.00 0.01 0.02 0.02 0.02 0.02 0.01 0.00 0.00 0.00 0.00 0.00 0.00 0.00 0.00
MSLP
1003.70 1002.84 1001.48 1000.86 1002.46 1003.33 1002.41 1002.29 1003.15 1004.02 1005.19 1005.41 1006.18 1006.76 1007.68 1008.77 1009.22 1008.76 1008.69 1008.57 1008.89 1009.11 1009.35 1009.91 1010.28 1010.75 1011.55 1012.40 1013.50 1013.99 1014.52 1015.09 1015.58 1015.60 1015.32 1015.26 1015.30 1015.61 1015.78 1015.84 1016.73 1016.84 1016.70 1016.84
1002.91 1002.23 1001.10 1001.38 1001.91 1002.13 1001.83 1001.78 1002.98 1003.87 1004.67 1004.94 1005.00 1005.24 1006.35 1007.23 1008.40 1008.51 1008.53 1008.35 1008.61 1008.71 1010.23 1010.25 1009.80 1010.43 1011.14 1012.36 1013.25 1014.01 1014.52 1015.16 1015.68 1015.53 1015.42 1015.05 1015.13 1015.34 1015.40 1015.53 1016.48 1016.62 1016.76 1016.84
1001.87 1001.14 1001.40 1001.58 1001.76 1001.90 1001.36 1001.06 1002.01 1004.16 1003.99 1004.32 1004.35 1005.55 1005.52 1006.49 1007.09 1008.23 1008.83 1008.33 1008.19 1008.70 1008.66 1009.05 1009.40 1010.23 1010.87 1011.81 1013.03 1013.69 1014.43 1015.08 1015.40 1015.18 1015.36 1015.79 1015.59 1015.68 1015.64 1015.79 1016.29 1016.45 1016.62 1016.68
1002.01 1001.41 1001.72 1001.67 1001.37 1001.12 1000.44 1001.58 1002.26 1002.60 1004.09 1006.66 1004.53 1005.29 1005.89 1005.24 1006.16 1006.83 1007.31 1008.50 1008.34 1007.70 1009.29 1008.87 1008.95 1009.69 1010.42 1011.09 1012.35 1013.44 1014.12 1014.78 1015.27 1015.46 1015.18 1015.38 1015.50 1015.50 1015.36 1015.43 1015.61 1016.14 1016.47 1016.61
1001.21 1001.30 1001.22 1001.20 1000.87 1001.02 1000.69 1001.88 1001.98 1002.58 1002.25 1003.63 1003.82 1002.20 1003.95 1003.59 1004.39 1005.24 1006.18 1006.43 1007.64 1008.28 1007.49 1007.97 1009.17 1008.87 1009.56 1010.56 1011.59 1012.82 1013.94 1014.51 1014.83 1015.37 1015.62 1015.74 1015.51 1016.08 1015.55 1015.18 1015.92 1015.95 1016.46 1016.60
1000.95 1001.15 1000.96 1000.57 1000.63 1001.16 1001.23 1001.56 1001.73 1001.86 1001.59 1001.34 1002.19 1001.72 1002.32 1003.84 1002.07 1003.21 1004.30 1005.31 1006.70 1007.35 1007.16 1007.10 1007.78 1009.07 1008.91 1010.20 1010.88 1011.94 1013.51 1014.24 1014.59 1015.14 1015.67 1015.77 1015.35 1015.68 1015.51 1015.32 1015.77 1015.74 1016.10 1016.53
1000.68 1000.64 1000.76 1000.64 1000.49 1000.91 1001.22 1000.31 1001.27 1001.69 1001.82 1001.00 1001.50 1000.90 1001.59 1001.85 1002.08 1002.57 1003.51 1004.28 1005.94 1006.80 1007.45 1006.86 1007.25 1007.95 1008.54 1009.44 1010.29 1011.37 1012.85 1013.83 1014.24 1014.62 1015.05 1015.58 1015.61 1015.76 1015.81 1015.67 1015.40 1015.25 1015.65 1015.57
999.40 999.93 1000.11 1000.56 999.84 999.75 1000.31 999.68 999.54 1000.29 1000.49 999.14 1000.12 999.89 1000.70 1001.47 1001.97 1002.88 1004.01 1003.72 1004.17 1005.26 1006.37 1006.10 1006.51 1007.31 1008.06 1008.77 1009.77 1010.71 1012.05 1013.25 1013.82 1014.15 1014.64 1015.08 1015.48 1015.73 1015.63 1015.80 1015.11 1014.80 1015.21 1015.50
998.09 998.20 999.54 999.88 999.97 1000.02 999.37 999.77 999.03 998.84 998.51 999.39 999.46 1000.12 1000.52 1001.43 1001.68 1002.51 1003.07 1003.98 1004.22 1004.73 1005.64 1006.01 1006.53 1006.84 1007.73 1008.45 1009.35 1010.21 1011.41 1012.64 1013.24 1013.59 1014.24 1014.50 1015.25 1015.53 1015.28 1015.00 1015.50 1015.20 1014.98 1014.85
998.14 998.22 999.09 999.61 1000.17 1000.10 999.79 999.75 999.03 999.14 998.78 998.72 999.98 999.55 1000.46 1001.26 1001.66 1002.16 1002.39 1002.93 1004.31 1004.61 1005.19 1005.55 1006.32 1006.76 1007.39 1008.15 1008.94 1009.91 1010.80 1011.90 1012.54 1012.91 1013.53 1014.00 1014.48 1014.87 1015.19 1015.14 1015.39 1015.16 1015.43 1015.11
998.75 998.47 998.99 999.48 999.78 999.03 999.64 999.60 999.30 998.60 998.72 998.50 998.80 1000.48 1000.21 1001.10 1001.85 1002.12 1002.82 1003.35 1004.00 1004.73 1005.32 1005.85 1006.28 1006.94 1007.20 1007.74 1008.35 1009.14 1010.15 1011.03 1011.93 1012.31 1012.67 1013.21 1013.75 1014.19 1014.72 1014.87 1015.08 1015.36 1015.15 1015.38
999.06 998.17 998.44 998.60 998.77 998.89 998.74 998.59 998.94 998.36 999.08 998.88 999.00 1000.48 1000.94 1001.47 1001.92 1002.67 1003.29 1003.82 1004.83 1005.31 1005.45 1005.87 1006.63 1007.07 1007.08 1007.93 1008.34 1008.88 1009.43 1010.15 1010.87 1011.47 1012.12 1012.74 1013.24 1013.59 1013.94 1014.35 1014.36 1014.63 1015.07 1015.41
999.10 998.71 998.72 998.65 998.80 999.31 999.36 999.30 999.07 998.56 998.19 998.69 999.26 1000.18 1001.20 1001.56 1001.93 1002.72 1003.18 1004.28 1005.25 1005.65 1006.01 1006.21 1006.29 1006.86 1007.20 1007.97 1008.82 1008.76 1009.32 1009.77 1010.27 1010.84 1011.32 1011.97 1012.52 1012.93 1013.17 1013.44 1013.96 1014.07 1014.35 1014.77
999.31 998.63 997.98 998.17 999.14 998.17 998.94 999.08 999.33 999.15 998.48 998.23 998.49 999.49 1000.33 1001.15 1002.00 1002.79 1003.53 1004.30 1005.07 1005.55 1006.22 1006.49 1006.71 1007.27 1007.67 1007.98 1008.58 1009.23 1009.29 1009.68 1009.89 1010.41 1010.82 1011.24 1011.85 1012.25 1012.59 1012.88 1013.23 1013.65 1013.91 1014.26
999.28 998.76 998.95 998.59 999.51 999.19 999.12 999.23 999.32 999.50 999.39 998.70 998.93 999.69 999.55 1000.55 1001.46 1002.54 1003.58 1004.38 1005.17 1005.63 1005.98 1006.62 1006.84 1007.61 1008.32 1008.58 1008.97 1009.25 1009.66 1009.62 1009.91 1010.26 1010.64 1010.92 1011.32 1011.73 1012.09 1012.36 1012.66 1012.97 1013.34 1013.76
999.23 998.84 998.85 998.54 998.50 999.28 999.48 999.48 999.53 999.46 999.58 999.46 999.47 999.76 1000.35 1001.92 1002.52 1002.97 1003.85 1004.48 1005.13 1005.55 1006.01 1006.56 1007.21 1007.71 1008.48 1009.16 1009.87 1010.15 1010.60 1010.57 1010.51 1010.32 1010.37 1010.52 1011.24 1011.51 1011.57 1012.02 1012.42 1012.80 1013.15 1013.48
998.73 998.75 999.02 998.74 998.80 999.08 999.49 999.35 999.27 999.44 999.62 999.70 999.75 1000.18 1001.17 1002.33 1002.80 1003.42 1004.31 1004.80 1005.18 1005.59 1006.11 1006.50 1007.01 1007.65 1008.15 1009.05 1009.86 1010.49 1010.55 1010.63 1010.76 1010.77 1010.61 1010.63 1010.71 1010.91 1010.93 1011.20 1011.61 1011.90 1012.47 1012.89
998.42 998.76 998.96 998.98 999.10 998.80 999.12 999.26 999.50 999.65 999.75 999.88 1000.02 1000.36 1001.01 1002.05 1003.29 1003.78 1004.36 1004.97 1005.39 1005.92 1006.36 1006.76 1006.98 1007.55 1007.99 1008.43 1009.06 1009.83 1009.95 1010.27 1010.47 1010.72 1010.71 1010.51 1010.32 1010.30 1010.40 1010.63 1010.86 1011.14 1011.41 1011.75
997.67 998.61 998.75 999.06 998.92 998.72 998.72 999.46 999.88 999.92 1000.11 1000.15 1000.39 1000.91 1001.64 1002.71 1003.59 1004.17 1004.49 1005.07 1005.57 1006.07 1006.65 1006.98 1007.40 1007.85 1008.31 1008.71 1009.07 1009.54 1009.90 1009.91 1009.94 1009.99 1010.22 1010.20 1009.99 1009.86 1009.94 1010.12 1010.38 1010.65 1010.91 1010.93
998.17 998.31 998.89 998.88 998.80 998.41 997.99 998.47 999.17 1000.13 999.97 1000.08 1000.58 1001.14 1001.98 1003.05 1003.21 1003.52 1004.97 1005.45 1005.78 1006.17 1006.74 1007.07 1007.38 1007.95 1008.35 1008.76 1009.07 1009.43 1009.71 1010.05 1010.21 1010.20 1009.86 1009.51 1009.50 1009.64 1009.67 1009.72 1010.04 1010.31 1010.53 1010.63
998.65 998.29 998.38 998.55 998.75 998.44 998.39 998.99 999.82 1000.48 1000.15 999.77 1000.46 1001.22 1002.01 1002.96 1003.71 1004.51 1005.29 1005.67 1006.06 1006.40 1006.84 1007.21 1007.63 1007.79 1008.09 1008.58 1008.96 1009.42 1009.81 1009.85 1009.70 1009.48 1009.59 1009.44 1009.54 1009.60 1009.56 1009.56 1009.70 1010.00 1010.21 1010.35
998.39 998.40 998.02 998.32 998.01 998.26 998.31 999.23 1000.00 1000.03 1000.37 1000.64 1000.83 1001.35 1002.08 1003.33 1004.09 1004.50 1005.08 1005.60 1006.03 1006.44 1006.79 1006.94 1007.54 1007.77 1007.96 1008.34 1008.77 1008.93 1009.56 1009.79 1009.42 1009.24 1009.31 1009.38 1009.41 1009.87 1009.64 1009.61 1009.56 1009.80 1010.01 1010.17
997.69 997.46 997.47 997.52 997.27 997.91 998.36 999.16 999.61 1000.06 1000.41 1000.86 1001.13 1001.61 1002.33 1003.30 1004.04 1004.48 1005.05 1005.69 1006.15 1006.58 1006.92 1007.11 1007.19 1007.55 1007.92 1008.41 1008.78 1008.91 1009.50 1009.57 1009.32 1009.19 1009.27 1009.37 1010.00 1010.30 1010.46 1010.43 1010.44 1010.54 1010.61 1010.67
997.35 997.10 996.97 997.56 998.00 997.73 998.41 999.04 999.48 999.89 1000.38 1000.84 1001.37 1001.80 1002.60 1003.18 1003.84 1004.52 1005.18 1005.71 1006.27 1006.74 1007.14 1007.26 1007.31 1007.39 1007.70 1008.04 1008.43 1009.21 1009.34 1008.94 1009.13 1009.20 1009.34 1009.78 1010.25 1010.87 1011.16 1011.36 1011.47 1011.31 1011.29 1011.25
998.22 997.28 997.16 997.31 997.63 997.98 998.54 998.99 999.39 999.88 1000.53 1000.82 1001.30 1001.91 1002.80 1003.42 1004.02 1004.79 1005.44 1006.07 1006.54 1007.02 1007.26 1007.45 1007.53 1007.60 1007.79 1008.22 1008.74 1009.36 1009.18 1009.05 1008.91 1009.17 1009.75 1010.27 1010.66 1011.04 1011.68 1012.57 1012.97 1012.48 1012.21 1012.15
998.10 997.68 997.35 997.14 997.51 998.48 998.63 999.17 999.52 1000.00 1000.65 1001.18 1001.59 1002.37 1003.07 1003.64 1004.32 1005.12 1005.86 1006.39 1006.93 1007.21 1007.35 1007.53 1007.64 1007.81 1007.96 1008.54 1009.08 1009.11 1009.20 1009.31 1009.12 1009.65 1010.05 1010.32 1010.67 1011.15 1011.98 1012.71 1013.18 1013.25 1012.94 1012.58
Thickness
5792 5781 5788 5818 5797 5788 5804 5800 5784 5790 5793 5789 5777 5776 5776 5772 5766 5773 5775 5777 5777 5779 5785 5784 5785 5784 5779 5773 5765 5765 5763 5762 5759 5758 5759 5760 5760 5762 5763 5765 5760 5760 5764 5765
5784 5773 5812 5817 5808 5800 5804 5800 5784 5790 5795 5792 5790 5787 5787 5783 5770 5775 5775 5779 5777 5784 5772 5779 5787 5785 5782 5773 5768 5765 5764 5762 5759 5760 5761 5765 5765 5766 5769 5769 5763 5764 5765 5767
5779 5801 5809 5800 5795 5789 5802 5806 5794 5753 5791 5798 5793 5756 5780 5784 5786 5777 5772 5783 5788 5778 5785 5786 5787 5784 5784 5778 5770 5767 5765 5763 5762 5766 5764 5760 5764 5765 5766 5768 5767 5767 5767 5769
5783 5805 5791 5788 5788 5803 5799 5808 5799 5793 5761 5700 5780 5733 5731 5783 5778 5780 5782 5770 5775 5791 5773 5785 5791 5787 5785 5785 5779 5772 5769 5765 5763 5764 5766 5763 5761 5760 5768 5772 5775 5772 5769 5770
5783 5787 5786 5781 5793 5807 5800 5802 5799 5791 5796 5772 5772 5795 5765 5795 5779 5783 5784 5787 5781 5781 5796 5796 5787 5795 5794 5791 5784 5777 5771 5767 5767 5764 5763 5762 5763 5762 5769 5775 5771 5774 5771 5771
5795 5809 5802 5802 5810 5804 5809 5796 5797 5799 5801 5781 5787 5794 5781 5750 5799 5796 5799 5795 5784 5785 5794 5802 5802 5792 5798 5792 5790 5784 5772 5768 5769 5765 5762 5762 5766 5764 5767 5772 5771 5775 5775 5773
5787 5791 5804 5810 5796 5804 5797 5801 5753 5741 5736 5763 5795 5794 5785 5802 5806 5806 5800 5799 5788 5786 5782 5796 5798 5796 5795 5791 5790 5787 5776 5768 5770 5768 5766 5764 5765 5765 5765 5768 5773 5776 5776 5780
5779 5763 5795 5806 5808 5800 5795 5805 5777 5736 5742 5791 5810 5789 5790 5812 5814 5809 5798 5807 5807 5798 5793 5800 5803 5800 5797 5796 5793 5789 5780 5771 5771 5771 5767 5768 5766 5766 5768 5768 5777 5782 5781 5781
5797 5797 5811 5812 5815 5812 5806 5785 5825 5801 5819 5789 5802 5800 5813 5809 5807 5804 5802 5797 5799 5800 5797 5799 5801 5804 5799 5796 5793 5791 5784 5776 5774 5774 5771 5770 5767 5767 5770 5776 5775 5780 5785 5788
5814 5787 5808 5808 5809 5809 5802 5815 5793 5800 5764 5765 5770 5787 5773 5787 5792 5800 5803 5802 5795 5800 5800 5803 5800 5801 5801 5798 5796 5793 5790 5781 5779 5779 5776 5774 5773 5773 5772 5774 5773 5779 5779 5785
5811 5803 5792 5802 5786 5795 5793 5788 5799 5812 5802 5778 5774 5759 5809 5795 5796 5796 5797 5800 5799 5796 5796 5796 5798 5797 5799 5801 5798 5795 5790 5785 5781 5781 5780 5778 5776 5776 5774 5774 5774 5775 5780 5779
5805 5810 5783 5793 5818 5824 5816 5810 5805 5790 5776 5801 5793 5765 5807 5803 5800 5797 5793 5795 5793 5793 5795 5795 5791 5793 5797 5791 5793 5792 5790 5788 5786 5786 5783 5779 5778 5778 5777 5775 5778 5780 5776 5776
5802 5791 5767 5780 5801 5804 5789 5800 5807 5816 5821 5788 5774 5765 5806 5805 5799 5797 5792 5789 5785 5786 5787 5788 5791 5788 5789 5786 5782 5788 5788 5786 5787 5787 5785 5782 5780 5779 5779 5780 5779 5781 5781 5778
5803 5798 5794 5772 5770 5805 5782 5793 5798 5799 5790 5800 5802 5788 5796 5795 5791 5790 5788 5787 5784 5784 5780 5782 5783 5781 5782 5783 5781 5778 5782 5785 5786 5784 5785 5783 5780 5780 5781 5783 5783 5782 5783 5780
5795 5776 5786 5798 5787 5792 5790 5788 5791 5781 5789 5787 5794 5789 5808 5800 5797 5792 5789 5785 5778 5777 5779 5776 5778 5774 5772 5772 5773 5775 5775 5780 5782 5780 5780 5780 5781 5782 5782 5782 5783 5784 5784 5782
5792 5771 5786 5780 5799 5786 5774 5784 5785 5787 5787 5790 5792 5787 5804 5794 5793 5788 5783 5780 5774 5773 5774 5774 5771 5770 5766 5763 5759 5761 5760 5764 5770 5774 5777 5781 5778 5778 5780 5780 5780 5780 5781 5780
5780 5778 5769 5761 5789 5779 5754 5775 5781 5783 5789 5786 5770 5787 5788 5779 5779 5778 5774 5774 5771 5771 5769 5769 5768 5766 5765 5760 5757 5750 5755 5759 5759 5763 5769 5773 5777 5778 5780 5781 5781 5781 5779 5780
5775 5771 5773 5761 5770 5733 5775 5793 5788 5778 5782 5789 5788 5790 5787 5783 5779 5779 5778 5769 5767 5765 5764 5763 5765 5764 5763 5764 5761 5754 5751 5753 5753 5756 5758 5766 5773 5776 5778 5779 5780 5780 5782 5781
5797 5774 5761 5747 5751 5770 5777 5774 5769 5763 5762 5783 5780 5781 5779 5776 5771 5764 5773 5771 5765 5763 5761 5760 5760 5758 5757 5755 5756 5754 5750 5751 5753 5756 5758 5762 5768 5771 5773 5774 5775 5777 5777 5780
5783 5783 5763 5756 5737 5730 5779 5792 5792 5778 5745 5781 5780 5774 5769 5764 5745 5753 5762 5761 5759 5760 5757 5754 5755 5752 5750 5750 5751 5747 5746 5745 5744 5748 5755 5762 5765 5766 5768 5771 5771 5772 5774 5776
5742 5755 5747 5751 5738 5758 5784 5782 5781 5728 5744 5784 5781 5773 5766 5752 5752 5754 5755 5752 5753 5752 5750 5751 5747 5745 5746 5746 5745 5738 5738 5739 5746 5752 5752 5756 5758 5759 5763 5766 5768 5768 5768 5770
5731 5732 5743 5749 5741 5728 5787 5771 5743 5761 5772 5773 5774 5771 5762 5755 5751 5750 5748 5745 5745 5743 5745 5748 5741 5740 5743 5743 5738 5737 5731 5735 5743 5748 5749 5749 5752 5750 5755 5757 5761 5762 5763 5763
5734 5752 5751 5760 5762 5783 5782 5772 5775 5774 5766 5767 5767 5767 5762 5751 5745 5746 5742 5738 5737 5737 5737 5740 5739 5736 5737 5736 5733 5729 5727 5730 5735 5738 5740 5743 5740 5740 5742 5743 5746 5747 5749 5749
5752 5770 5759 5757 5762 5770 5772 5775 5774 5773 5767 5769 5768 5763 5757 5748 5746 5741 5738 5735 5731 5731 5728 5732 5732 5731 5730 5732 5730 5722 5722 5729 5728 5729 5731 5731 5730 5726 5728 5729 5729 5736 5738 5739
5734 5754 5752 5755 5763 5766 5766 5768 5768 5767 5765 5765 5764 5759 5749 5744 5739 5735 5730 5727 5725 5724 5724 5724 5723 5724 5723 5724 5720 5716 5718 5720 5723 5724 5721 5717 5717 5719 5717 5710 5710 5718 5722 5724
5739 5734 5737 5746 5761 5753 5755 5762 5765 5757 5755 5756 5753 5746 5744 5740 5732 5729 5723 5722 5718 5717 5719 5717 5717 5717 5717 5714 5710 5712 5713 5712 5715 5710 5709 5710 5711 5711 5707 5704 5703 5702 5706 5710